TimeEDT,TemperatureF,Dew PointF,Humidity,Sea Level PressureIn,VisibilityMPH,Wind Direction,Wind SpeedMPH,Gust SpeedMPH,PrecipitationIn,Events,Conditions,WindDirDegrees,DateUTC
12:21 AM,37.4,33.8,87,29.94,10.0,ESE,5.8,-,0.00,,Overcast,120,2013-04-12 04:21:00
12:56 AM,36.9,34.9,93,29.95,5.0,East,8.1,-,0.00,Rain,Light Rain,100,2013-04-12 04:56:00
1:56 AM,36.9,36.0,97,29.92,5.0,ESE,9.2,-,0.00,Rain,Light Rain,120,2013-04-12 05:56:00
2:56 AM,37.9,36.0,93,29.86,10.0,SE,10.4,-,0.00,,Overcast,130,2013-04-12 06:56:00
3:23 AM,39.2,37.4,93,29.82,10.0,SE,12.7,21.9,N/A,,Overcast,130,2013-04-12 07:23:00
3:56 AM,39.9,36.9,89,29.83,10.0,SE,11.5,19.6,N/A,,Overcast,130,2013-04-12 07:56:00
4:56 AM,41.0,36.9,85,29.81,10.0,SE,21.9,26.5,N/A,,Overcast,140,2013-04-12 08:56:00
5:56 AM,41.0,36.0,82,29.78,10.0,SE,17.3,24.2,N/A,,Overcast,140,2013-04-12 09:56:00
6:30 AM,39.2,35.6,87,29.74,10.0,ESE,15.0,26.5,N/A,,Overcast,120,2013-04-12 10:30:00
6:56 AM,39.9,34.9,82,29.75,10.0,SE,15.0,23.0,N/A,,Overcast,140,2013-04-12 10:56:00
7:56 AM,39.9,36.0,86,29.73,10.0,SSE,18.4,25.3,0.00,Rain,Light Rain,150,2013-04-12 11:56:00
8:56 AM,38.8,36.0,89,29.71,4.0,SSE,12.7,24.2,0.14,Rain,Rain,150,2013-04-12 12:56:00
9:56 AM,38.8,36.9,93,29.71,10.0,SSE,13.8,20.7,0.06,Rain,Light Rain,160,2013-04-12 13:56:00
10:56 AM,39.9,36.9,89,29.69,10.0,SSE,18.4,26.5,0.02,Rain,Light Rain,160,2013-04-12 14:56:00
11:56 AM,41.0,36.9,85,29.68,10.0,SSE,23.0,28.8,0.00,,Overcast,160,2013-04-12 15:56:00
12:56 PM,41.0,37.9,89,29.68,10.0,SSE,24.2,31.1,0.00,Rain,Light Rain,160,2013-04-12 16:56:00
1:56 PM,43.0,39.9,89,29.66,10.0,SSE,18.4,24.2,0.00,Rain,Light Rain,160,2013-04-12 17:56:00
2:56 PM,45.9,41.9,86,29.65,10.0,SSE,17.3,24.2,0.00,,Overcast,160,2013-04-12 18:56:00
3:56 PM,45.9,41.9,86,29.65,10.0,South,12.7,19.6,N/A,,Overcast,170,2013-04-12 19:56:00
4:56 PM,45.9,41.9,86,29.66,10.0,South,9.2,-,N/A,,Overcast,170,2013-04-12 20:56:00
5:56 PM,45.9,43.0,90,29.69,10.0,South,8.1,-,N/A,,Overcast,170,2013-04-12 21:56:00
6:56 PM,45.0,43.9,96,29.71,3.0,SSE,3.5,-,0.00,Rain,Light Rain,150,2013-04-12 22:56:00
7:56 PM,45.0,43.9,96,29.74,3.0,Calm,Calm,-,0.00,Rain,Light Rain,0,2013-04-12 23:56:00
8:56 PM,43.9,43.0,97,29.75,3.0,North,8.1,-,0.00,,Overcast,10,2013-04-13 00:56:00
9:56 PM,41.9,39.9,93,29.80,4.0,North,10.4,-,0.04,Rain,Light Rain,350,2013-04-13 01:56:00
10:03 PM,42.8,39.2,87,29.78,6.0,NNW,11.5,-,0.00,Rain,Light Rain,340,2013-04-13 02:03:00
10:56 PM,38.8,36.9,93,29.83,6.0,NW,15.0,-,0.02,Rain,Light Rain,320,2013-04-13 02:56:00
10:59 PM,39.2,37.4,93,29.81,5.0,NNW,12.7,-,0.00,Rain,Light Rain,330,2013-04-13 02:59:00
11:56 PM,37.9,36.9,96,29.85,8.0,NW,4.6,-,0.00,Rain,Light Rain,310,2013-04-13 03:56:00